Pasco, WA

9:17 PM PST on February 23, 2017 (GMT -0800)
Tri-Cities

Weather History for KPSC - May, 2013

Change the Weather History Date:

Sunday, May 12, 2013

  Actual Average Record
Temperature  
Mean Temperature 78 °F 60 °F  
Max Temperature 91 °F 75 °F 101 °F (1993)
Min Temperature 65 °F 44 °F 32 °F (2012)
Degree Days  
Heating Degree Days 0 6  
Month to date heating degree days 35 90  
Since 1 July heating degree days 4600 4914  
Cooling Degree Days 13 1  
Month to date cooling degree days 45 4  
Year to date cooling degree days 45 5  
Growing Degree Days 29 (Base 50)    
Moisture  
Dew Point 50 °F    
Average Humidity 41    
Maximum Humidity 61    
Minimum Humidity 20    
Precipitation  
Precipitation 0.00 in 0.02 in 0.57 in (2015)
Month to date precipitation 0.00 0.24  
Year to date precipitation 1.26 3.76  
Snow  
Snow 0.00 in - - ()
Snow Depth 0.00 in    
Sea Level Pressure  
Sea Level Pressure 29.96 in    
Wind  
Wind Speed 8 mph (SW)    
Max Wind Speed 22 mph    
Max Gust Speed 30 mph    
Visibility 10 miles    
Events      
T = Trace of Precipitation, MM = Missing Value Source: NWS Daily Summary

Daily Weather History Graph

Daily Weather History Graph

Search for Another Location

Airport or City:

Trip Planner

Search our weather history database for the weather conditions in past years. The results will help you decide how hot, cold, wet, or windy it might be!

Date:

Astronomy

May. 12, 2013 Rise Set
Actual Time 5:26 AM PDT 8:19 PM PDT
Civil Twilight 4:51 AM PDT 8:54 PM PDT
Nautical Twilight 4:07 AM PDT 9:39 PM PDT
Astronomical Twilight 3:14 AM PDT 10:32 PM PDT
Moon 7:23 AM PDT (5/12) 10:51 PM PDT (5/12)
Length of Visible Light 16h 02m
Length of Day
14h 52m
Waxing Crescent, 7% of the Moon is Illuminated
May 12
Waxing Crescent
May 17
First Quarter
May 24
Full
May 31
Last Quarter
Jun 8
New

Hourly Weather History & Observations

Time (PDT) Temp. Heat Index Dew Point Humidity Pressure Visibility Wind Dir Wind Speed Gust Speed Precip Events Conditions
12:53 AM 69.1 °F - 55.9 °F 63% 29.95 in 10.0 mi ENE 4.6 mph - N/A   Clear
1:53 AM 70.0 °F - 54.0 °F 57% 29.94 in 10.0 mi Calm Calm - N/A   Clear
2:53 AM 69.1 °F - 53.1 °F 57% 29.94 in 10.0 mi SE 5.8 mph - N/A   Partly Cloudy
3:53 AM 68.0 °F - 53.1 °F 59% 29.94 in 10.0 mi SSE 4.6 mph - N/A   Clear
4:53 AM 71.1 °F - 52.0 °F 51% 29.94 in 10.0 mi South 8.1 mph - N/A   Clear
5:53 AM 72.0 °F - 51.1 °F 48% 29.95 in 10.0 mi SSW 6.9 mph - N/A   Clear
6:53 AM 72.0 °F - 50.0 °F 46% 29.97 in 10.0 mi SSW 8.1 mph - N/A   Clear
7:53 AM 75.0 °F - 50.0 °F 41% 29.98 in 10.0 mi South 5.8 mph - N/A   Clear
8:53 AM 80.1 °F - 50.0 °F 35% 29.98 in 10.0 mi SSW 10.4 mph - N/A   Clear
9:53 AM 80.1 °F - 52.0 °F 38% 29.99 in 10.0 mi South 10.4 mph - N/A   Clear
10:53 AM 82.9 °F - 52.0 °F 34% 29.98 in 10.0 mi SSW 10.4 mph - N/A   Clear
11:53 AM 84.0 °F 82.5 °F 53.1 °F 34% 29.98 in 10.0 mi South 6.9 mph - N/A   Clear
12:53 PM 89.1 °F - 52.0 °F 28% 29.96 in 10.0 mi WSW 13.8 mph 17.3 mph N/A   Clear
1:53 PM 90.0 °F 87.5 °F 53.1 °F 28% 29.94 in 10.0 mi SW 16.1 mph 26.5 mph N/A   Partly Cloudy
2:16 PM 89.6 °F 87.3 °F 53.6 °F 29% 29.96 in 10.0 mi WNW 15.0 mph 21.9 mph N/A   Mostly Cloudy
2:53 PM 88.0 °F - 52.0 °F 29% 29.95 in 10.0 mi WNW 16.1 mph - N/A   Clear
3:53 PM 87.1 °F - 52.0 °F 30% 29.94 in 10.0 mi WNW 16.1 mph - N/A   Clear
4:53 PM 84.9 °F - 43.0 °F 23% 29.94 in 10.0 mi West 13.8 mph 23.0 mph N/A   Clear
5:53 PM 84.9 °F - 39.9 °F 20% 29.94 in 10.0 mi West 16.1 mph 20.7 mph N/A   Clear
6:53 PM 81.0 °F - 46.9 °F 30% 29.93 in 10.0 mi West 15.0 mph 23.0 mph N/A   Clear
7:53 PM 78.1 °F - 45.0 °F 31% 29.94 in 10.0 mi West 13.8 mph 25.3 mph N/A   Clear
8:53 PM 73.9 °F - 45.0 °F 35% 29.96 in 10.0 mi West 15.0 mph - N/A   Overcast
9:53 PM 72.0 °F - 48.0 °F 43% 29.98 in 10.0 mi West 10.4 mph - N/A   Clear
10:53 PM 70.0 °F - 46.9 °F 44% 29.99 in 10.0 mi SW 9.2 mph - N/A   Mostly Cloudy
11:53 PM 70.0 °F - 48.0 °F 46% 29.99 in 10.0 mi WSW 8.1 mph - N/A   Overcast